Weather History for K79J - October, 2011

Change the Weather History Date:

Wednesday, October 12, 2011

  Actual Average (KCEW) Record (KCEW)
Temperature  
Mean Temperature 66 °F -  
Max Temperature 72 °F 81 °F 90 °F (1991)
Min Temperature 62 °F 53 °F 34 °F (2000)
Cooling Degree Days 2    
Growing Degree Days 16 (Base 50)    
Moisture  
Dew Point 62 °F    
Average Humidity 84    
Maximum Humidity 94    
Minimum Humidity 73    
Precipitation  
Precipitation 0.00 in - - ()
Sea Level Pressure  
Sea Level Pressure 29.82 in    
Wind  
Wind Speed 2 mph (NW)    
Max Wind Speed 6 mph    
Max Gust Speed -    
Visibility 6 miles    
Events Fog , Rain    
Averages and records for this station are not official NWS values.
T = Trace of Precipitation, MM = Missing Value Source: NWS Daily Summary

Daily Weather History Graph

Daily Weather History Graph

Search for Another Location

Airport or City:

Trip Planner

Search our weather history database for the weather conditions in past years. The results will help you decide how hot, cold, wet, or windy it might be!

Date:

Astronomy

Oct. 12, 2011 Rise Set
Actual Time 6:46 AM CDT 6:17 PM CDT
Civil Twilight 6:21 AM CDT 6:41 PM CDT
Nautical Twilight 5:53 AM CDT 7:09 PM CDT
Astronomical Twilight 5:25 AM CDT 7:38 PM CDT
Moon 6:26 PM CDT (10/12) 7:14 AM CDT (10/12)
Length of Visible Light 12h 19m
Length of Day
11h 31m
Full, 100% of the Moon is Illuminated
Oct 12
Full
Oct 19
Last Quarter
Oct 26
New
Nov 2
First Quarter
Nov 10
Full

Hourly Weather History & Observations

Time (CDT) Temp. Dew Point Humidity Pressure Visibility Wind Dir Wind Speed Gust Speed Precip Events Conditions
8:35 AM 64.4 °F 62.6 °F 94% 29.87 in 7.0 mi Calm Calm - N/A   Overcast
8:56 AM 64.4 °F 62.6 °F 94% 29.86 in 7.0 mi North 3.5 mph - N/A   Overcast
9:56 AM 66.2 °F 62.6 °F 88% 29.85 in 10.0 mi Calm Calm - N/A   Overcast
10:56 AM 68.0 °F 62.6 °F 83% 29.85 in 10.0 mi NW 3.5 mph - N/A   Overcast
11:56 AM 71.6 °F 62.6 °F 73% 29.84 in 7.0 mi Calm Calm - N/A Rain Light Rain
12:01 PM 71.6 °F 62.6 °F 73% 29.85 in 10.0 mi Variable 3.5 mph - N/A   Overcast
12:56 PM 69.8 °F 62.6 °F 78% 29.82 in 10.0 mi Variable 3.5 mph - N/A   Overcast
1:56 PM 69.8 °F 62.6 °F 78% 29.81 in 10.0 mi Variable 3.5 mph - N/A   Overcast
2:43 PM 71.6 °F 62.6 °F 73% 29.81 in 9.0 mi Variable 3.5 mph - N/A   Overcast
2:56 PM 70.0 °F 63.0 °F 78% 29.81 in 7.0 mi WNW 5.8 mph - N/A Rain Light Rain
3:09 PM 69.8 °F 62.6 °F 78% 29.81 in 8.0 mi WNW 4.6 mph - 0.00 in   Overcast
3:56 PM 70.0 °F 64.0 °F 81% 29.81 in 10.0 mi Calm Calm - 0.00 in   Overcast
4:44 PM 69.8 °F 62.6 °F 78% 29.81 in 2.5 mi NNW 5.8 mph - 0.00 in Rain Light Rain
4:51 PM 69.8 °F 62.6 °F 78% 29.81 in 6.0 mi NNW 3.5 mph - 0.00 in Rain Light Rain
4:56 PM 69.1 °F 64.0 °F 84% 29.80 in 10.0 mi Calm Calm - 0.00 in   Overcast
5:56 PM 69.1 °F 63.0 °F 81% 29.80 in 10.0 mi Calm Calm - N/A   Overcast
6:56 PM 68.0 °F 63.0 °F 84% 29.81 in 10.0 mi Calm Calm - N/A   Overcast
7:56 PM 68.0 °F 63.0 °F 84% 29.82 in 10.0 mi Calm Calm - N/A   Overcast
8:56 PM 68.0 °F 63.0 °F 84% 29.82 in 10.0 mi Calm Calm - N/A   Overcast
9:56 PM 66.9 °F 63.0 °F 87% 29.82 in 9.0 mi Calm Calm - N/A   Mostly Cloudy
10:41 PM 64.4 °F 60.8 °F 88% 29.82 in 2.0 mi Calm Calm - N/A   Partly Cloudy
10:43 PM 64.4 °F 60.8 °F 88% 29.82 in 1.0 mi Calm Calm - N/A   Mist
10:49 PM 64.4 °F 60.8 °F 88% 29.82 in 0.2 mi Calm Calm - N/A Fog Fog
10:56 PM 64.0 °F 60.1 °F 87% 29.83 in 0.2 mi Calm Calm - N/A Fog Fog
11:04 PM 62.6 °F 59.0 °F 88% 29.84 in 0.8 mi NNW 3.5 mph - N/A   Mist
11:07 PM 62.6 °F 59.0 °F 88% 29.84 in 1.5 mi NNW 3.5 mph - N/A   Mostly Cloudy
11:10 PM 62.6 °F 59.0 °F 88% 29.84 in 3.0 mi NNW 3.5 mph - N/A   Mostly Cloudy
11:40 PM 62.6 °F 60.8 °F 94% 29.82 in 2.5 mi Calm Calm - N/A   Mostly Cloudy
11:43 PM 62.6 °F 60.8 °F 94% 29.82 in 1.2 mi Calm Calm - N/A   Mostly Cloudy
11:45 PM 62.6 °F 60.8 °F 94% 29.81 in 0.8 mi Calm Calm - N/A   Mist
11:56 PM 63.0 °F 60.1 °F 90% 29.82 in 0.2 mi Calm Calm - N/A Fog Fog